STARLINK-2753 (48696 NORAD) Tracking and Keplerian Element Data

This shows tracking and keplerian element data for the satellite.

Feedback or suggestion? Click here.




ElementValue
Catalog48696
NameSTARLINK-2753
Epoch Orbit168
Epoch Day170.58334491
Epoch Year2021
RAAN306.012
Inclination53.0485
Eccentricity0.0001076
Argument of Perigee71.3714
Mean Anonmoly171.1954
Mean Motion15.70601206
Decay Rate0.0022417
L11 48696U 21044BL 21170.58334491 .00224170 00000-0 17398-2 0 9998
L22 48696 53.0485 306.0120 0001076 71.3714 171.1954 15.70601206 1680

Live tracking and technical data element details for STARLINK-2753 (NORAD 48696). STARLINK-2753 can be tracked NOW for your location showing map with azimuth and elevation plus other details from your city location.

Track the satellite on the map from your city or location and see movement details for azimuth, elevation, latitude, longitude, range, height, and movement on the map or in text.







IsCatalogInMostPopularTable: catalog: 48696, numindb: 4
Update: records affected: 1



GetName: 48696 STARLINK-2753

Hit Count: updated at: Mon, 21 Jun 2021 04:06:11 GMT